{"data":{"norad_id":56323,"epoch":"2026-05-25T05:36:28.362240Z","epoch_age_seconds":51922,"freshness":"FRESH","line1":"1 56323U 23058G   26145.23366160  .00002398  00000+0  17017-3 0  9992","line2":"2 56323  97.4490 145.2160 0001490  94.3317 265.8080 15.05659605169281","mean_motion":15.05659605,"eccentricity":0.000149,"inclination_deg":97.449,"raan_deg":145.216,"arg_perigee_deg":94.3317,"mean_anomaly_deg":265.808,"bstar":0.00017017,"rev_number":16928,"period_min":95.639146804367,"perigee_km":548.4494766254099,"apogee_km":550.51390699557,"semimajor_km":6927.6186918105,"source":"CELESTRAK","updated_at":"2026-05-25T13:38:18.000879Z"}}